Retour au catalogue

ONEWEB-0224

ActifCommunicationsPO
NORAD 48794·PAYLOAD·🇬🇧 United Kingdom

Lancé May 28, 2021 depuis Vostochny Cosmodrome

Loading…

Prochains Passages (prochaines 24 heures)

TLE

FraisSource: CelesTrak SupGP

Époque: Sep 15, 2026, 02:08 UTC

1 48794C 21045AD  26258.08937917 -.00004664  00000+0 -12405-1 0  2583
2 48794  87.8982 241.2996 0001260  69.0664  41.3093 13.15553197    10

Suivez ONEWEB-0224 en temps réel avec AllMySat

Download on the App Store